| time (UTC) | temp C | wind direction | speed KPH | gust KPH | rain 1hr cm | rain 24hr cm | rain mn cm | humidity % | barometer mb |
| 20260510180417 | 12 | 68 | 4.8 | 8.0 | 0.00 | 0.15 | 0.00 | 45 | 999.0 |
| 20260510175917 | 12 | 68 | 8.0 | 9.7 | 0.00 | 0.15 | 0.00 | 45 | 998.9 |
| 20260510175417 | 12 | 68 | 6.4 | 8.0 | 0.00 | 0.15 | 0.00 | 46 | 998.8 |
| 20260510174917 | 12 | 68 | 6.4 | 8.0 | 0.00 | 0.15 | 0.00 | 47 | 998.9 |
| 20260510174419 | 12 | 68 | 6.4 | 8.0 | 0.00 | 0.15 | 0.00 | 47 | 998.8 |
| 20260510173937 | 12 | 68 | 6.4 | 9.7 | 0.00 | 0.15 | 0.00 | 47 | 998.8 |
| 20260510173458 | 12 | 68 | 8.0 | 9.7 | 0.00 | 0.15 | 0.00 | 45 | 998.9 |
| 20260510172917 | 12 | 68 | 6.4 | 9.7 | 0.00 | 0.15 | 0.00 | 45 | 998.9 |
| 20260510172417 | 12 | 68 | 6.4 | 9.7 | 0.00 | 0.15 | 0.00 | 47 | 998.9 |
| 20260510171918 | 12 | 45 | 8.0 | 11.3 | 0.00 | 0.15 | 0.00 | 47 | 999.0 |
| 20260510171417 | 11 | 68 | 6.4 | 8.0 | 0.00 | 0.15 | 0.00 | 46 | 999.0 |
| 20260510170917 | 11 | 45 | 6.4 | 8.0 | 0.00 | 0.15 | 0.00 | 46 | 999.0 |
| 20260510170417 | 11 | 45 | 8.0 | 9.7 | 0.00 | 0.15 | 0.00 | 45 | 999.0 |
| 20260510165916 | 11 | 68 | 6.4 | 8.0 | 0.00 | 0.15 | 0.00 | 46 | 999.0 |
| 20260510165418 | 11 | 68 | 6.4 | 8.0 | 0.00 | 0.15 | 0.00 | 47 | 999.0 |
| 20260510164917 | 11 | 90 | 6.4 | 8.0 | 0.00 | 0.15 | 0.00 | 46 | 999.1 |
| 20260510164417 | 11 | 68 | 6.4 | 8.0 | 0.00 | 0.15 | 0.00 | 47 | 999.0 |
| 20260510163919 | 11 | 68 | 6.4 | 9.7 | 0.00 | 0.15 | 0.00 | 46 | 999.1 |
| 20260510163417 | 11 | 90 | 4.8 | 8.0 | 0.00 | 0.15 | 0.00 | 47 | 998.9 |
| 20260510162917 | 11 | 68 | 6.4 | 11.3 | 0.00 | 0.15 | 0.00 | 48 | 999.0 |
| 20260510162417 | 11 | 68 | 6.4 | 8.0 | 0.00 | 0.15 | 0.00 | 46 | 998.9 |
| 20260510161917 | 11 | 68 | 8.0 | 11.3 | 0.00 | 0.15 | 0.00 | 47 | 998.8 |
| 20260510161417 | 11 | 68 | 8.0 | 11.3 | 0.00 | 0.15 | 0.00 | 47 | 998.8 |
| 20260510160917 | 11 | 90 | 11.3 | 12.9 | 0.00 | 0.15 | 0.00 | 48 | 998.6 |
| 20260510160417 | 11 | 90 | 6.4 | 8.0 | 0.00 | 0.15 | 0.00 | 46 | 998.6 |
| 20260510155917 | 11 | 68 | 9.7 | 12.9 | 0.00 | 0.15 | 0.00 | 46 | 998.6 |
| 20260510155417 | 11 | 45 | 6.4 | 8.0 | 0.00 | 0.15 | 0.00 | 47 | 998.4 |
| 20260510154917 | 11 | 45 | 11.3 | 16.1 | 0.00 | 0.15 | 0.00 | 46 | 998.2 |
| 20260510154437 | 11 | 45 | 8.0 | 11.3 | 0.00 | 0.15 | 0.00 | 47 | 998.2 |
| 20260510153937 | 11 | 45 | 11.3 | 14.5 | 0.00 | 0.15 | 0.00 | 47 | 998.2 |
| 20260510153416 | 11 | 45 | 11.3 | 14.5 | 0.00 | 0.15 | 0.00 | 48 | 998.2 |
| 20260510152937 | 11 | 68 | 8.0 | 14.5 | 0.00 | 0.15 | 0.00 | 47 | 998.1 |
| 20260510152417 | 11 | 68 | 8.0 | 14.5 | 0.00 | 0.15 | 0.00 | 47 | 998.1 |
| 20260510151916 | 11 | 68 | 8.0 | 12.9 | 0.00 | 0.15 | 0.00 | 45 | 998.2 |
| 20260510151417 | 11 | 68 | 12.9 | 17.7 | 0.00 | 0.15 | 0.00 | 47 | 998.1 |
| 20260510150917 | 11 | 45 | 11.3 | 16.1 | 0.00 | 0.15 | 0.00 | 45 | 998.1 |
| 20260510150418 | 11 | 68 | 12.9 | 16.1 | 0.00 | 0.15 | 0.00 | 45 | 998.1 |
| 20260510145917 | 11 | 68 | 12.9 | 16.1 | 0.00 | 0.15 | 0.00 | 46 | 997.9 |
| 20260510145437 | 11 | 45 | 9.7 | 14.5 | 0.00 | 0.15 | 0.00 | 47 | 997.9 |
| 20260510144937 | 11 | 45 | 11.3 | 16.1 | 0.00 | 0.15 | 0.00 | 47 | 997.8 |
| 20260510144417 | 11 | 45 | 11.3 | 16.1 | 0.00 | 0.15 | 0.00 | 45 | 997.7 |
| 20260510143936 | 11 | 68 | 12.9 | 17.7 | 0.00 | 0.15 | 0.00 | 47 | 997.9 |
| 20260510143416 | 11 | 45 | 14.5 | 17.7 | 0.00 | 0.15 | 0.00 | 47 | 997.8 |
| 20260510142917 | 11 | 45 | 12.9 | 16.1 | 0.00 | 0.15 | 0.00 | 47 | 997.8 |
| 20260510142416 | 11 | 45 | 12.9 | 19.3 | 0.00 | 0.15 | 0.00 | 46 | 997.8 |
| 20260510141917 | 11 | 45 | 17.7 | 19.3 | 0.00 | 0.15 | 0.00 | 46 | 997.6 |
| 20260510141417 | 11 | 45 | 14.5 | 19.3 | 0.00 | 0.15 | 0.00 | 47 | 997.7 |
| 20260510140916 | 10 | 45 | 12.9 | 19.3 | 0.00 | 0.15 | 0.00 | 47 | 997.7 |
| 20260510140417 | 11 | 68 | 14.5 | 16.1 | 0.00 | 0.15 | 0.00 | 48 | 997.8 |
| 20260510135916 | 11 | 68 | 16.1 | 19.3 | 0.00 | 0.15 | 0.00 | 47 | 997.8 |
| 20260510135459 | 11 | 45 | 14.5 | 17.7 | 0.00 | 0.15 | 0.00 | 48 | 997.8 |
| 20260510134917 | 11 | 45 | 12.9 | 16.1 | 0.00 | 0.15 | 0.00 | 48 | 997.8 |
| 20260510134417 | 11 | 45 | 14.5 | 20.9 | 0.00 | 0.15 | 0.00 | 49 | 997.7 |
| 20260510133917 | 11 | 45 | 14.5 | 17.7 | 0.00 | 0.15 | 0.00 | 46 | 997.7 |
| 20260510133417 | 10 | 45 | 14.5 | 17.7 | 0.00 | 0.15 | 0.00 | 47 | 997.5 |
| 20260510132916 | 10 | 68 | 11.3 | 16.1 | 0.00 | 0.15 | 0.00 | 47 | 997.4 |
| 20260510132417 | 10 | 68 | 12.9 | 16.1 | 0.00 | 0.15 | 0.00 | 47 | 997.3 |
| 20260510131916 | 10 | 68 | 9.7 | 14.5 | 0.00 | 0.15 | 0.00 | 48 | 997.3 |
| 20260510131417 | 10 | 45 | 14.5 | 19.3 | 0.00 | 0.15 | 0.00 | 49 | 997.3 |
| 20260510130916 | 10 | 45 | 14.5 | 17.7 | 0.00 | 0.15 | 0.00 | 48 | 997.2 |
| 20260510130417 | 10 | 45 | 14.5 | 19.3 | 0.00 | 0.15 | 0.00 | 49 | 997.1 |
| 20260510125917 | 10 | 23 | 16.1 | 19.3 | 0.00 | 0.15 | 0.00 | 49 | 997.0 |
| 20260510125416 | 10 | 45 | 16.1 | 25.7 | 0.00 | 0.15 | 0.00 | 49 | 996.9 |
| 20260510124916 | 10 | 68 | 16.1 | 20.9 | 0.00 | 0.15 | 0.00 | 50 | 996.8 |
| 20260510124417 | 10 | 23 | 16.1 | 19.3 | 0.00 | 0.15 | 0.00 | 49 | 996.8 |
| 20260510123917 | 10 | 23 | 16.1 | 22.5 | 0.00 | 0.15 | 0.00 | 49 | 996.7 |
| 20260510123416 | 10 | 23 | 11.3 | 16.1 | 0.00 | 0.15 | 0.00 | 49 | 996.7 |
| 20260510122917 | 10 | 23 | 16.1 | 24.1 | 0.00 | 0.15 | 0.00 | 50 | 996.6 |
| 20260510122416 | 10 | 23 | 19.3 | 24.1 | 0.00 | 0.15 | 0.00 | 50 | 996.5 |
| 20260510121917 | 10 | 23 | 17.7 | 25.7 | 0.00 | 0.15 | 0.00 | 49 | 996.4 |
| 20260510121416 | 10 | 23 | 16.1 | 20.9 | 0.00 | 0.15 | 0.00 | 49 | 996.4 |
| 20260510120916 | 10 | 23 | 17.7 | 29.0 | 0.00 | 0.15 | 0.00 | 49 | 996.3 |
| 20260510120416 | 10 | 45 | 16.1 | 22.5 | 0.00 | 0.15 | 0.00 | 49 | 996.2 |
| 20260510115917 | 10 | 45 | 19.3 | 27.4 | 0.00 | 0.15 | 0.00 | 49 | 996.1 |
| 20260510115416 | 10 | 23 | 12.9 | 17.7 | 0.00 | 0.15 | 0.00 | 52 | 996.0 |
| 20260510114917 | 10 | 45 | 17.7 | 20.9 | 0.00 | 0.15 | 0.00 | 49 | 995.8 |
| 20260510114416 | 10 | 23 | 17.7 | 22.5 | 0.00 | 0.15 | 0.00 | 50 | 995.8 |
| 20260510113916 | 10 | 45 | 17.7 | 20.9 | 0.00 | 0.15 | 0.00 | 49 | 995.7 |
| 20260510113416 | 10 | 23 | 22.5 | 27.4 | 0.00 | 0.15 | 0.00 | 51 | 995.6 |
| 20260510112918 | 10 | 23 | 17.7 | 24.1 | 0.00 | 0.15 | 0.00 | 52 | 995.6 |
| 20260510112456 | 10 | 45 | 19.3 | 24.1 | 0.00 | 0.15 | 0.00 | 51 | 995.3 |
| 20260510111919 | 10 | 23 | 19.3 | 25.7 | 0.00 | 0.15 | 0.00 | 51 | 995.3 |
| 20260510111418 | 10 | 23 | 22.5 | 29.0 | 0.00 | 0.15 | 0.00 | 52 | 995.2 |
| 20260510110938 | 10 | 23 | 20.9 | 25.7 | 0.00 | 0.15 | 0.00 | 52 | 995.1 |
| 20260510110440 | 10 | 23 | 20.9 | 30.6 | 0.00 | 0.15 | 0.00 | 52 | 995.0 |
| 20260510105918 | 10 | 23 | 24.1 | 30.6 | 0.00 | 0.15 | 0.00 | 50 | 994.9 |
| 20260510105418 | 10 | 23 | 24.1 | 32.2 | 0.00 | 0.15 | 0.00 | 52 | 994.8 |
| 20260510104918 | 10 | 23 | 24.1 | 32.2 | 0.00 | 0.15 | 0.00 | 52 | 994.8 |
| 20260510104419 | 10 | 23 | 20.9 | 29.0 | 0.00 | 0.15 | 0.00 | 55 | 994.7 |
| 20260510103919 | 10 | 23 | 20.9 | 30.6 | 0.00 | 0.15 | 0.00 | 55 | 994.6 |
| 20260510103421 | 10 | 0 | 20.9 | 24.1 | 0.00 | 0.15 | 0.00 | 57 | 994.3 |
| 20260510102918 | 10 | 23 | 19.3 | 24.1 | 0.00 | 0.15 | 0.00 | 56 | 994.2 |
| 20260510102418 | 11 | 23 | 20.9 | 22.5 | 0.00 | 0.15 | 0.00 | 57 | 994.1 |
| 20260510101918 | 11 | 23 | 16.1 | 24.1 | 0.00 | 0.15 | 0.00 | 55 | 993.9 |
| 20260510101418 | 11 | 23 | 17.7 | 20.9 | 0.00 | 0.15 | 0.00 | 55 | 993.7 |
| 20260510100919 | 11 | 45 | 17.7 | 24.1 | 0.00 | 0.15 | 0.00 | 56 | 993.7 |
| 20260510100419 | 11 | 23 | 17.7 | 25.7 | 0.00 | 0.15 | 0.00 | 56 | 993.6 |
| 20260510095939 | 11 | 45 | 14.5 | 20.9 | 0.00 | 0.15 | 0.00 | 55 | 993.5 |
| 20260510095418 | 11 | 45 | 16.1 | 20.9 | 0.00 | 0.15 | 0.00 | 53 | 993.5 |
| 20260510095059 | 11 | 45 | 16.1 | 20.9 | 0.00 | 0.15 | 0.00 | 53 | 993.3 |
| 20260510094419 | 11 | 45 | 20.9 | 27.4 | 0.00 | 0.15 | 0.00 | 53 | 993.2 |
| 20260510093919 | 11 | 45 | 17.7 | 22.5 | 0.00 | 0.15 | 0.00 | 53 | 993.1 |
| 20260510093418 | 11 | 45 | 19.3 | 25.7 | 0.00 | 0.15 | 0.00 | 53 | 993.1 |
| 20260510092918 | 11 | 45 | 14.5 | 20.9 | 0.00 | 0.15 | 0.00 | 54 | 993.2 |
| 20260510092420 | 11 | 45 | 14.5 | 17.7 | 0.00 | 0.15 | 0.00 | 53 | 993.0 |
| 20260510091918 | 11 | 23 | 16.1 | 25.7 | 0.00 | 0.15 | 0.00 | 53 | 993.0 |
| 20260510091419 | 11 | 23 | 11.3 | 17.7 | 0.00 | 0.15 | 0.00 | 54 | 993.0 |
| 20260510090918 | 11 | 45 | 6.4 | 8.0 | 0.00 | 0.15 | 0.00 | 54 | 992.9 |
| 20260510090500 | 11 | 23 | 11.3 | 16.1 | 0.00 | 0.15 | 0.00 | 54 | 992.8 |
| 20260510085919 | 11 | 23 | 8.0 | 12.9 | 0.00 | 0.15 | 0.00 | 54 | 992.7 |
| 20260510085418 | 11 | 23 | 6.4 | 11.3 | 0.00 | 0.15 | 0.00 | 54 | 992.8 |
| 20260510084918 | 11 | 23 | 9.7 | 12.9 | 0.00 | 0.15 | 0.00 | 54 | 992.6 |
| 20260510084418 | 11 | 23 | 8.0 | 11.3 | 0.00 | 0.15 | 0.00 | 53 | 992.6 |
| 20260510083939 | 11 | 23 | 6.4 | 11.3 | 0.00 | 0.15 | 0.00 | 53 | 992.5 |
| 20260510083418 | 11 | 45 | 8.0 | 12.9 | 0.00 | 0.15 | 0.00 | 53 | 992.4 |
| 20260510082918 | 12 | 45 | 6.4 | 9.7 | 0.00 | 0.15 | 0.00 | 54 | 992.3 |
| 20260510082418 | 12 | 23 | 8.0 | 12.9 | 0.00 | 0.15 | 0.00 | 53 | 992.2 |
| 20260510081918 | 12 | 23 | 9.7 | 12.9 | 0.00 | 0.15 | 0.00 | 54 | 992.3 |
| 20260510081500 | 12 | 23 | 8.0 | 14.5 | 0.00 | 0.15 | 0.00 | 53 | 992.3 |
| 20260510080939 | 11 | 45 | 9.7 | 14.5 | 0.00 | 0.15 | 0.00 | 51 | 992.2 |
| 20260510080419 | 11 | 45 | 9.7 | 11.3 | 0.00 | 0.15 | 0.00 | 52 | 992.2 |
| 20260510075918 | 11 | 45 | 11.3 | 14.5 | 0.00 | 0.15 | 0.00 | 52 | 991.9 |
| 20260510075418 | 11 | 45 | 12.9 | 14.5 | 0.00 | 0.15 | 0.00 | 52 | 991.9 |
| 20260510074918 | 11 | 45 | 11.3 | 14.5 | 0.00 | 0.15 | 0.00 | 52 | 991.9 |
| 20260510074418 | 11 | 45 | 8.0 | 11.3 | 0.00 | 0.15 | 0.00 | 53 | 991.9 |
| 20260510073918 | 11 | 23 | 6.4 | 9.7 | 0.00 | 0.15 | 0.00 | 52 | 991.7 |
| 20260510073418 | 11 | 45 | 16.1 | 19.3 | 0.00 | 0.15 | 0.00 | 52 | 991.5 |
| 20260510072918 | 12 | 45 | 16.1 | 19.3 | 0.00 | 0.15 | 0.00 | 53 | 991.5 |
| 20260510072438 | 12 | 45 | 16.1 | 20.9 | 0.00 | 0.15 | 0.00 | 53 | 991.4 |
| 20260510071959 | 12 | 45 | 17.7 | 20.9 | 0.00 | 0.15 | 0.00 | 53 | 991.3 |
| 20260510071439 | 12 | 45 | 17.7 | 20.9 | 0.00 | 0.15 | 0.00 | 53 | 991.2 |
| 20260510070918 | 12 | 45 | 12.9 | 16.1 | 0.00 | 0.15 | 0.00 | 54 | 991.1 |
| 20260510070418 | 12 | 45 | 16.1 | 20.9 | 0.00 | 0.15 | 0.00 | 54 | 991.1 |
| 20260510065918 | 12 | 45 | 19.3 | 22.5 | 0.00 | 0.15 | 0.00 | 54 | 991.0 |
| 20260510065418 | 12 | 45 | 17.7 | 20.9 | 0.00 | 0.15 | 0.00 | 54 | 991.0 |
| 20260510064918 | 12 | 45 | 17.7 | 22.5 | 0.00 | 0.15 | 0.00 | 53 | 990.9 |
| 20260510064418 | 12 | 45 | 22.5 | 25.7 | 0.00 | 0.15 | 0.00 | 55 | 990.8 |
| 20260510063918 | 12 | 45 | 24.1 | 27.4 | 0.00 | 0.15 | 0.00 | 54 | 990.7 |
| 20260510063418 | 12 | 45 | 20.9 | 25.7 | 0.00 | 0.15 | 0.00 | 53 | 990.9 |
| 20260510062937 | 12 | 45 | 24.1 | 27.4 | 0.00 | 0.15 | 0.00 | 53 | 990.8 |
| 20260510062419 | 12 | 45 | 25.7 | 27.4 | 0.00 | 0.15 | 0.00 | 53 | 990.7 |
| 20260510061918 | 12 | 45 | 25.7 | 27.4 | 0.00 | 0.15 | 0.00 | 54 | 990.7 |
| 20260510061418 | 12 | 45 | 27.4 | 32.2 | 0.00 | 0.15 | 0.00 | 54 | 990.6 |
| 20260510060918 | 12 | 45 | 29.0 | 32.2 | 0.00 | 0.15 | 0.00 | 53 | 990.5 |
| 20260510060418 | 12 | 45 | 32.2 | 37.0 | 0.00 | 0.15 | 0.00 | 54 | 990.6 |
| 20260510055939 | 12 | 45 | 30.6 | 37.0 | 0.00 | 0.15 | 0.00 | 54 | 990.6 |
| 20260510055420 | 12 | 45 | 30.6 | 33.8 | 0.00 | 0.15 | 0.00 | 54 | 990.6 |
| 20260510054922 | 12 | 45 | 25.7 | 35.4 | 0.00 | 0.15 | 0.00 | 55 | 990.4 |
| 20260510054438 | 12 | 45 | 27.4 | 32.2 | 0.00 | 0.15 | 0.00 | 55 | 990.4 |
| 20260510053919 | 12 | 45 | 20.9 | 25.7 | 0.00 | 0.15 | 0.00 | 55 | 990.2 |
| 20260510053421 | 12 | 45 | 19.3 | 24.1 | 0.00 | 0.15 | 0.00 | 54 | 990.2 |
| 20260510052918 | 12 | 45 | 20.9 | 25.7 | 0.00 | 0.15 | 0.00 | 54 | 990.0 |
| 20260510052420 | 12 | 23 | 25.7 | 30.6 | 0.00 | 0.15 | 0.00 | 54 | 989.9 |
| 20260510051920 | 13 | 23 | 25.7 | 37.0 | 0.00 | 0.15 | 0.00 | 54 | 989.7 |
| 20260510051422 | 13 | 45 | 24.1 | 37.0 | 0.00 | 0.15 | 0.00 | 53 | 989.6 |
| 20260510050942 | 13 | 23 | 25.7 | 40.2 | 0.00 | 0.15 | 0.00 | 54 | 989.6 |
| 20260510050421 | 13 | 23 | 32.2 | 40.2 | 0.00 | 0.15 | 0.00 | 53 | 989.5 |
| 20260510045921 | 14 | 23 | 32.2 | 40.2 | 0.00 | 0.15 | 0.00 | 54 | 989.2 |
| 20260510045418 | 15 | 23 | 40.2 | 46.7 | 0.03 | 0.15 | 0.00 | 53 | 989.2 |
| 20260510044918 | 15 | 0 | 30.6 | 41.8 | 0.03 | 0.15 | 0.00 | 52 | 988.8 |
| 20260510044418 | 16 | 338 | 6.4 | 11.3 | 0.08 | 0.15 | 0.00 | 51 | 988.7 |
| 20260510043920 | 16 | 270 | 16.1 | 22.5 | 0.08 | 0.15 | 0.00 | 52 | 988.6 |
| 20260510043419 | 16 | 270 | 19.3 | 24.1 | 0.08 | 0.15 | 0.00 | 53 | 988.4 |
| 20260510042920 | 16 | 270 | 19.3 | 24.1 | 0.08 | 0.15 | 0.00 | 54 | 988.1 |
| 20260510042418 | 16 | 270 | 14.5 | 17.7 | 0.08 | 0.15 | 0.00 | 54 | 988.0 |
| 20260510041940 | 17 | 270 | 17.7 | 22.5 | 0.08 | 0.15 | 0.00 | 53 | 988.0 |
| 20260510041440 | 17 | 248 | 16.1 | 19.3 | 0.08 | 0.15 | 0.00 | 52 | 987.9 |
| 20260510040917 | 17 | 270 | 29.0 | 40.2 | 0.08 | 0.15 | 0.00 | 51 | 987.7 |
| 20260510040419 | 16 | 225 | 12.9 | 16.1 | 0.08 | 0.15 | 0.00 | 49 | 987.1 |
| 20260510035920 | 16 | 225 | 25.7 | 32.2 | 0.08 | 0.15 | 0.15 | 50 | 986.9 |
| 20260510035420 | 16 | 225 | 29.0 | 33.8 | 0.05 | 0.13 | 0.13 | 51 | 986.9 |
| 20260510034920 | 17 | 225 | 32.2 | 41.8 | 0.05 | 0.13 | 0.13 | 47 | 987.3 |
| 20260510034418 | 16 | 248 | 25.7 | 32.2 | 0.00 | 0.08 | 0.08 | 49 | 987.1 |
| 20260510033918 | 16 | 225 | 16.1 | 24.1 | 0.00 | 0.08 | 0.08 | 53 | 987.4 |
| 20260510033419 | 16 | 225 | 17.7 | 22.5 | 0.00 | 0.08 | 0.08 | 53 | 987.1 |
| 20260510032920 | 16 | 225 | 16.1 | 19.3 | 0.00 | 0.08 | 0.08 | 53 | 987.0 |
| 20260510032418 | 15 | 225 | 17.7 | 19.3 | 0.00 | 0.08 | 0.08 | 53 | 986.8 |
| 20260510031918 | 15 | 225 | 14.5 | 17.7 | 0.00 | 0.08 | 0.08 | 53 | 986.8 |
| 20260510031418 | 15 | 225 | 14.5 | 19.3 | 0.00 | 0.08 | 0.08 | 53 | 986.9 |
| 20260510030919 | 15 | 203 | 14.5 | 19.3 | 0.00 | 0.08 | 0.08 | 53 | 986.8 |
| 20260510030418 | 15 | 225 | 14.5 | 17.7 | 0.00 | 0.08 | 0.08 | 53 | 986.8 |
| 20260510025938 | 16 | 225 | 12.9 | 16.1 | 0.00 | 0.08 | 0.08 | 53 | 986.8 |
| 20260510025418 | 16 | 225 | 14.5 | 17.7 | 0.00 | 0.08 | 0.08 | 52 | 986.7 |
| 20260510024941 | 16 | 225 | 14.5 | 16.1 | 0.00 | 0.08 | 0.08 | 52 | 986.7 |
| 20260510024420 | 16 | 203 | 8.0 | 12.9 | 0.00 | 0.08 | 0.08 | 51 | 986.7 |
| 20260510023920 | 16 | 203 | 12.9 | 19.3 | 0.00 | 0.08 | 0.08 | 51 | 986.6 |
| 20260510023438 | 16 | 203 | 16.1 | 19.3 | 0.00 | 0.08 | 0.08 | 51 | 986.6 |
| 20260510022920 | 16 | 225 | 19.3 | 22.5 | 0.00 | 0.08 | 0.08 | 52 | 986.6 |
| 20260510022421 | 16 | 225 | 19.3 | 22.5 | 0.00 | 0.08 | 0.08 | 52 | 986.7 |
| 20260510021958 | 16 | 225 | 11.3 | 14.5 | 0.00 | 0.08 | 0.08 | 52 | 986.5 |
| 20260510021418 | 16 | 225 | 12.9 | 14.5 | 0.00 | 0.08 | 0.08 | 52 | 986.5 |
| 20260510020920 | 16 | 225 | 12.9 | 14.5 | 0.00 | 0.08 | 0.08 | 52 | 986.6 |
| 20260510020420 | 16 | 225 | 16.1 | 20.9 | 0.00 | 0.08 | 0.08 | 52 | 986.6 |
| 20260510015921 | 16 | 248 | 14.5 | 17.7 | 0.00 | 0.08 | 0.08 | 52 | 986.6 |
| 20260510015420 | 16 | 225 | 14.5 | 17.7 | 0.00 | 0.08 | 0.08 | 52 | 986.6 |
| 20260510014917 | 16 | 225 | 17.7 | 19.3 | 0.00 | 0.08 | 0.08 | 52 | 986.6 |
| 20260510014421 | 16 | 225 | 22.5 | 27.4 | 0.00 | 0.08 | 0.08 | 53 | 986.6 |
| 20260510013917 | 16 | 225 | 17.7 | 22.5 | 0.00 | 0.08 | 0.08 | 53 | 986.5 |
| 20260510013420 | 16 | 225 | 17.7 | 19.3 | 0.00 | 0.08 | 0.08 | 54 | 986.5 |
| 20260510012920 | 16 | 225 | 16.1 | 19.3 | 0.00 | 0.08 | 0.08 | 54 | 986.2 |
| 20260510012420 | 16 | 225 | 11.3 | 14.5 | 0.00 | 0.08 | 0.08 | 54 | 986.0 |
| 20260510011918 | 16 | 225 | 12.9 | 14.5 | 0.00 | 0.08 | 0.08 | 54 | 986.0 |
| 20260510011438 | 16 | 203 | 11.3 | 12.9 | 0.00 | 0.08 | 0.08 | 53 | 986.0 |
| 20260510010918 | 16 | 203 | 12.9 | 14.5 | 0.00 | 0.08 | 0.08 | 53 | 985.9 |
| 20260510010440 | 16 | 203 | 6.4 | 9.7 | 0.00 | 0.08 | 0.08 | 53 | 985.9 |
| 20260510005920 | 16 | 203 | 9.7 | 12.9 | 0.00 | 0.08 | 0.08 | 53 | 985.9 |
| 20260510005417 | 16 | 203 | 11.3 | 12.9 | 0.00 | 0.08 | 0.08 | 53 | 985.8 |
| 20260510004918 | 16 | 225 | 12.9 | 16.1 | 0.00 | 0.08 | 0.08 | 52 | 985.8 |
| 20260510004417 | 16 | 225 | 14.5 | 16.1 | 0.00 | 0.08 | 0.08 | 52 | 985.8 |
| 20260510003920 | 16 | 225 | 16.1 | 19.3 | 0.00 | 0.08 | 0.08 | 52 | 985.8 |
| 20260510003417 | 16 | 225 | 16.1 | 19.3 | 0.00 | 0.08 | 0.08 | 52 | 985.8 |
| 20260510002917 | 16 | 225 | 12.9 | 16.1 | 0.00 | 0.08 | 0.08 | 51 | 985.8 |
| 20260510002417 | 16 | 225 | 16.1 | 19.3 | 0.00 | 0.08 | 0.08 | 51 | 985.8 |
| 20260510001920 | 17 | 225 | 12.9 | 16.1 | 0.00 | 0.08 | 0.08 | 50 | 985.8 |
| 20260510001440 | 17 | 225 | 14.5 | 17.7 | 0.00 | 0.08 | 0.08 | 50 | 985.8 |
| 20260510000920 | 17 | 225 | 14.5 | 19.3 | 0.00 | 0.08 | 0.08 | 49 | 985.7 |
| 20260510000420 | 17 | 225 | 11.3 | 16.1 | 0.00 | 0.08 | 0.08 | 49 | 985.7 |
| 20260509235917 | 17 | 225 | 12.9 | 17.7 | 0.00 | 0.08 | 0.08 | 49 | 985.7 |
| 20260509235419 | 17 | 225 | 19.3 | 22.5 | 0.00 | 0.08 | 0.08 | 49 | 985.8 |
| 20260509235000 | 17 | 225 | 17.7 | 19.3 | 0.00 | 0.08 | 0.08 | 48 | 985.8 |
| 20260509234420 | 17 | 225 | 12.9 | 17.7 | 0.00 | 0.08 | 0.08 | 49 | 985.7 |
| 20260509233917 | 17 | 225 | 16.1 | 19.3 | 0.00 | 0.08 | 0.08 | 49 | 985.7 |
| 20260509233417 | 17 | 248 | 9.7 | 12.9 | 0.00 | 0.08 | 0.08 | 50 | 985.8 |
| 20260509232917 | 17 | 248 | 9.7 | 12.9 | 0.00 | 0.08 | 0.08 | 50 | 985.6 |
| 20260509232419 | 16 | 225 | 9.7 | 12.9 | 0.00 | 0.08 | 0.08 | 50 | 985.6 |
| 20260509231919 | 16 | 225 | 11.3 | 14.5 | 0.03 | 0.08 | 0.08 | 51 | 985.6 |
| 20260509231417 | 16 | 248 | 14.5 | 17.7 | 0.03 | 0.08 | 0.08 | 51 | 985.6 |
| 20260509230938 | 16 | 225 | 12.9 | 17.7 | 0.03 | 0.08 | 0.08 | 51 | 985.6 |
| 20260509230419 | 16 | 225 | 14.5 | 19.3 | 0.03 | 0.08 | 0.08 | 52 | 985.5 |
| 20260509225938 | 16 | 225 | 14.5 | 17.7 | 0.05 | 0.08 | 0.08 | 54 | 985.4 |
| 20260509225418 | 15 | 225 | 20.9 | 22.5 | 0.08 | 0.08 | 0.08 | 54 | 985.6 |
| 20260509224918 | 15 | 225 | 20.9 | 25.7 | 0.08 | 0.08 | 0.08 | 54 | 985.6 |
| 20260509224419 | 15 | 225 | 19.3 | 24.1 | 0.08 | 0.08 | 0.08 | 55 | 985.6 |
| 20260509223918 | 15 | 225 | 17.7 | 22.5 | 0.08 | 0.08 | 0.08 | 55 | 985.5 |
| 20260509223417 | 15 | 225 | 20.9 | 29.0 | 0.08 | 0.08 | 0.08 | 55 | 985.4 |
| 20260509222937 | 15 | 248 | 14.5 | 16.1 | 0.08 | 0.08 | 0.08 | 55 | 985.7 |
| 20260509222418 | 16 | 225 | 19.3 | 27.4 | 0.08 | 0.08 | 0.08 | 53 | 985.3 |
| 20260509221917 | 16 | 248 | 22.5 | 25.7 | 0.05 | 0.05 | 0.05 | 54 | 985.5 |
| 20260509221417 | 16 | 248 | 22.5 | 25.7 | 0.05 | 0.05 | 0.05 | 55 | 985.1 |
| 20260509220917 | 16 | 248 | 25.7 | 27.4 | 0.05 | 0.08 | 0.05 | 55 | 985.2 |
| 20260509220438 | 17 | 270 | 33.8 | 43.5 | 0.05 | 0.08 | 0.05 | 53 | 985.4 |
| 20260509215917 | 18 | 270 | 22.5 | 30.6 | 0.03 | 0.05 | 0.03 | 49 | 985.4 |
| 20260509215417 | 21 | 270 | 22.5 | 32.2 | 0.00 | 0.03 | 0.00 | 42 | 985.0 |
| 20260509214918 | 21 | 248 | 17.7 | 24.1 | 0.00 | 0.03 | 0.00 | 39 | 983.8 |
| 20260509214417 | 21 | 225 | 19.3 | 27.4 | 0.00 | 0.03 | 0.00 | 40 | 983.3 |
| 20260509213919 | 21 | 225 | 29.0 | 37.0 | 0.00 | 0.03 | 0.00 | 40 | 983.0 |
| 20260509213417 | 21 | 248 | 22.5 | 27.4 | 0.00 | 0.03 | 0.00 | 42 | 983.1 |
| 20260509212917 | 21 | 225 | 30.6 | 35.4 | 0.00 | 0.03 | 0.00 | 40 | 982.8 |
| 20260509212438 | 21 | 225 | 27.4 | 33.8 | 0.00 | 0.03 | 0.00 | 41 | 983.0 |
| 20260509211937 | 21 | 225 | 32.2 | 43.5 | 0.00 | 0.03 | 0.00 | 42 | 982.9 |
| 20260509211418 | 21 | 225 | 41.8 | 51.5 | 0.00 | 0.03 | 0.00 | 41 | 982.9 |
| 20260509210917 | 21 | 225 | 33.8 | 48.3 | 0.00 | 0.03 | 0.00 | 41 | 982.9 |
| 20260509210418 | 21 | 225 | 30.6 | 46.7 | 0.00 | 0.03 | 0.00 | 41 | 982.8 |
| 20260509205917 | 21 | 225 | 29.0 | 43.5 | 0.00 | 0.03 | 0.00 | 42 | 982.8 |
| 20260509205437 | 21 | 203 | 32.2 | 46.7 | 0.00 | 0.03 | 0.00 | 41 | 982.8 |
| 20260509204917 | 21 | 225 | 33.8 | 45.1 | 0.00 | 0.03 | 0.00 | 43 | 983.0 |
| 20260509204417 | 21 | 225 | 33.8 | 46.7 | 0.00 | 0.03 | 0.00 | 42 | 983.0 |
| 20260509203917 | 21 | 203 | 32.2 | 41.8 | 0.00 | 0.03 | 0.00 | 43 | 983.1 |
| 20260509203419 | 21 | 225 | 32.2 | 51.5 | 0.00 | 0.03 | 0.00 | 42 | 983.2 |
| 20260509202917 | 21 | 225 | 32.2 | 46.7 | 0.00 | 0.03 | 0.00 | 42 | 983.5 |
| 20260509202500 | 21 | 225 | 30.6 | 38.6 | 0.00 | 0.03 | 0.00 | 42 | 983.5 |
| 20260509201917 | 21 | 225 | 38.6 | 43.5 | 0.00 | 0.03 | 0.00 | 43 | 983.6 |
| 20260509201417 | 21 | 225 | 41.8 | 51.5 | 0.00 | 0.03 | 0.00 | 43 | 983.6 |
| 20260509200917 | 21 | 225 | 30.6 | 37.0 | 0.00 | 0.03 | 0.00 | 45 | 983.8 |
| 20260509200418 | 21 | 225 | 38.6 | 49.9 | 0.00 | 0.03 | 0.00 | 43 | 983.7 |
| 20260509195917 | 21 | 203 | 37.0 | 48.3 | 0.00 | 0.03 | 0.00 | 44 | 983.9 |
| 20260509195417 | 21 | 225 | 27.4 | 43.5 | 0.00 | 0.03 | 0.00 | 44 | 983.9 |
| 20260509194917 | 21 | 225 | 35.4 | 45.1 | 0.00 | 0.03 | 0.00 | 44 | 984.0 |
| 20260509194417 | 21 | 225 | 37.0 | 48.3 | 0.00 | 0.03 | 0.00 | 44 | 984.0 |
| 20260509193917 | 21 | 225 | 37.0 | 48.3 | 0.00 | 0.03 | 0.00 | 45 | 984.4 |
| 20260509193418 | 20 | 225 | 37.0 | 43.5 | 0.00 | 0.03 | 0.00 | 44 | 984.3 |
| 20260509192957 | 20 | 203 | 29.0 | 57.9 | 0.00 | 0.03 | 0.00 | 45 | 984.4 |
| 20260509192417 | 20 | 225 | 35.4 | 48.3 | 0.00 | 0.03 | 0.00 | 45 | 984.4 |
| 20260509191917 | 20 | 225 | 32.2 | 51.5 | 0.00 | 0.03 | 0.00 | 45 | 984.5 |
| 20260509191417 | 20 | 225 | 32.2 | 41.8 | 0.00 | 0.03 | 0.00 | 47 | 984.6 |
| 20260509190917 | 20 | 225 | 30.6 | 37.0 | 0.00 | 0.03 | 0.00 | 46 | 984.7 |
| 20260509190417 | 20 | 225 | 35.4 | 43.5 | 0.00 | 0.03 | 0.00 | 46 | 984.8 |
| 20260509185938 | 20 | 225 | 38.6 | 49.9 | 0.00 | 0.03 | 0.00 | 46 | 984.7 |
| 20260509185416 | 20 | 225 | 22.5 | 32.2 | 0.00 | 0.03 | 0.00 | 46 | 984.7 |
| 20260509184917 | 20 | 225 | 29.0 | 37.0 | 0.00 | 0.03 | 0.00 | 46 | 984.7 |
| 20260509184417 | 20 | 225 | 33.8 | 45.1 | 0.00 | 0.03 | 0.00 | 45 | 984.7 |
| 20260509183917 | 20 | 203 | 37.0 | 43.5 | 0.00 | 0.03 | 0.00 | 45 | 984.6 |
| 20260509183417 | 20 | 225 | 20.9 | 30.6 | 0.00 | 0.03 | 0.00 | 46 | 984.8 |
| 20260509182917 | 20 | 203 | 20.9 | 40.2 | 0.00 | 0.03 | 0.00 | 46 | 984.9 |
| 20260509182417 | 20 | 225 | 19.3 | 25.7 | 0.00 | 0.03 | 0.00 | 48 | 985.0 |
| 20260509181937 | 19 | 180 | 20.9 | 33.8 | 0.00 | 0.03 | 0.00 | 47 | 985.0 |
| 20260509181437 | 19 | 225 | 30.6 | 38.6 | 0.00 | 0.03 | 0.00 | 47 | 985.1 |
| 20260509180917 | 19 | 203 | 40.2 | 51.5 | 0.00 | 0.03 | 0.00 | 45 | 985.1 |